Location: *
(50.2903°S, 172.5375°W)
Time: 23:29:59
(UTC+00:00)

Resurs 1-4 Rocket - Pass Details

Date: 17 November 2019
Orbit: 799 x 814 km, 98.6° (Epoch: 14 December)

Event Time Altitude Azimuth Distance (km) Brightness Sun altitude
Exits shadow 12:15:04 35° 7° (N) 1,284 2.7 -19.5°
Maximum altitude 12:17:23 80° 285° (WNW) 831 2.0 -19.4°
Drops below altitude 10° 12:22:45 10° 197° (SSW) 2,416 5.4 -19.1°
Sets 12:25:07 0° 195° (SSW) 3,355 6.3 -19.0°
